Breckenridge, CO

10:33 PM MST on February 10, 2016 (GMT -0700)
Copper Mountain

Weather History for KCCU - September, 2013

Change the Weather History Date:

Sunday, September 22, 2013

  Actual Average Record
Temperature  
Mean Temperature 46 °F -  
Max Temperature 51 °F - - ()
Min Temperature 41 °F - - ()
Degree Days  
Heating Degree Days 19    
Month to date heating degree days  
Cooling Degree Days 0    
Month to date cooling degree days  
Moisture  
Dew Point 33 °F    
Average Humidity 61    
Maximum Humidity 81    
Minimum Humidity 47    
Precipitation  
Precipitation 0.03 in - - ()
Sea Level Pressure  
Sea Level Pressure 30.25 in    
Wind  
Wind Speed 14 mph (South)    
Max Wind Speed 22 mph    
Max Gust Speed 33 mph    
Visibility 10 miles    
Events Rain , Thunderstorm    
T = Trace of Precipitation, MM = Missing Value Source: NWS Daily Summary

Daily Weather History Graph

Daily Weather History Graph

Search for Another Location

Airport or City:

Trip Planner

Search our weather history database for the weather conditions in past years. The results will help you decide how hot, cold, wet, or windy it might be!

Date:

Astronomy

Sep. 22, 2013 Rise Set
Actual Time 6:52 AM MDT 7:01 PM MDT
Civil Twilight 6:25 AM MDT 7:27 PM MDT
Nautical Twilight 5:54 AM MDT 7:59 PM MDT
Astronomical Twilight 5:22 AM MDT 8:31 PM MDT
Moon 8:54 PM MDT (9/22) 10:14 AM MDT (9/22)
Length of Visible Light 13h 02m
Length of Day
12h 08m
Waning Gibbous, 88% of the Moon is Illuminated
Sep 22
Waning Gibbous
Sep 26
Last Quarter
Oct 4
New
Oct 11
First Quarter
Oct 18
Full

Hourly Weather History & Observations

Time (MDT) Temp. Windchill Dew Point Humidity Pressure Visibility Wind Dir Wind Speed Gust Speed Precip Events Conditions
12:14 AM 46.4 °F 39.2 °F 28.4 °F 50% 30.33 in 10.0 mi South 18.4 mph - N/A   Clear
12:34 AM 46.4 °F 39.5 °F 28.4 °F 50% 30.31 in 10.0 mi South 17.3 mph 23.0 mph N/A   Clear
12:54 AM 46.4 °F 39.5 °F 30.2 °F 53% 30.31 in 10.0 mi South 17.3 mph - N/A   Clear
1:14 AM 46.4 °F 39.0 °F 30.2 °F 53% 30.31 in 10.0 mi South 19.6 mph 27.6 mph N/A Thunderstorm Scattered Clouds
1:34 AM 46.4 °F 41.5 °F 30.2 °F 53% 30.31 in 10.0 mi SSW 10.4 mph 19.6 mph N/A   Clear
1:54 AM 46.4 °F 41.5 °F 32.0 °F 57% 30.31 in 10.0 mi West 10.4 mph 17.3 mph N/A   Scattered Clouds
2:14 AM 44.6 °F 38.4 °F 32.0 °F 61% 30.30 in 10.0 mi West 12.7 mph - N/A   Clear
2:34 AM 44.6 °F 39.2 °F 32.0 °F 61% 30.29 in 10.0 mi South 10.4 mph - N/A   Scattered Clouds
2:54 AM 46.4 °F 40.7 °F 32.0 °F 57% 30.28 in 10.0 mi South 12.7 mph - N/A   Overcast
3:14 AM 46.4 °F 42.4 °F 32.0 °F 57% 30.28 in 10.0 mi SSW 8.1 mph - N/A   Overcast
3:34 AM 46.4 °F 42.4 °F 32.0 °F 57% 30.28 in 10.0 mi West 8.1 mph 18.4 mph N/A   Overcast
3:54 AM 44.6 °F 39.7 °F 32.0 °F 61% 30.28 in 10.0 mi West 9.2 mph - N/A Thunderstorm Overcast
4:14 AM 44.6 °F 38.1 °F 32.0 °F 61% 30.28 in 10.0 mi South 13.8 mph 17.3 mph N/A   Overcast
4:34 AM 44.6 °F 38.4 °F 32.0 °F 61% 30.27 in 10.0 mi South 12.7 mph - N/A   Overcast
4:54 AM 44.6 °F 37.4 °F 32.0 °F 61% 30.27 in 10.0 mi South 16.1 mph - N/A   Mostly Cloudy
5:14 AM 44.6 °F 38.1 °F 32.0 °F 61% 30.26 in 10.0 mi South 13.8 mph - N/A   Scattered Clouds
5:34 AM 44.6 °F 38.1 °F 32.0 °F 61% 30.25 in 10.0 mi SSE 13.8 mph - N/A   Mostly Cloudy
5:54 AM 44.6 °F 37.4 °F 32.0 °F 61% 30.26 in 10.0 mi South 16.1 mph - N/A   Overcast
6:14 AM 44.6 °F 37.8 °F 32.0 °F 61% 30.26 in 10.0 mi South 15.0 mph - N/A   Overcast
6:34 AM 44.6 °F 38.1 °F 32.0 °F 61% 30.26 in 10.0 mi South 13.8 mph - N/A   Overcast
6:54 AM 44.6 °F 37.8 °F 32.0 °F 61% 30.26 in 10.0 mi South 15.0 mph - N/A   Scattered Clouds
7:14 AM 44.6 °F 37.8 °F 32.0 °F 61% 30.26 in 10.0 mi South 15.0 mph - N/A   Mostly Cloudy
7:34 AM 44.6 °F 38.4 °F 32.0 °F 61% 30.26 in 10.0 mi South 12.7 mph - N/A   Overcast
7:54 AM 44.6 °F 38.1 °F 32.0 °F 61% 30.26 in 10.0 mi South 13.8 mph - N/A   Overcast
8:14 AM 44.6 °F 41.4 °F 33.8 °F 66% 30.26 in 10.0 mi SSW 5.8 mph - N/A   Overcast
8:34 AM 44.6 °F 38.4 °F 33.8 °F 66% 30.26 in 10.0 mi West 12.7 mph - N/A   Overcast
8:54 AM 44.6 °F - 33.8 °F 66% 30.26 in 10.0 mi Calm Calm - N/A Thunderstorm Overcast
9:14 AM 44.6 °F 43.1 °F 33.8 °F 66% 30.26 in 10.0 mi West 3.5 mph - N/A Thunderstorm Overcast
9:34 AM 44.6 °F 40.7 °F 33.8 °F 66% 30.26 in 10.0 mi West 6.9 mph - N/A Thunderstorm Overcast
9:54 AM 44.6 °F 41.4 °F 33.8 °F 66% 30.26 in 10.0 mi WSW 5.8 mph - N/A Rain Light Rain
10:14 AM 44.6 °F 40.2 °F 35.6 °F 71% 30.25 in 7.0 mi SSE 8.1 mph - N/A Rain Light Rain
10:34 AM 41.0 °F 33.1 °F 35.6 °F 81% 30.25 in 1.8 mi SSE 15.0 mph - 0.01 in Rain Rain
10:54 AM 41.0 °F 35.2 °F 35.6 °F 81% 30.25 in 7.0 mi South 9.2 mph 15.0 mph 0.03 in Rain Light Rain
11:14 AM 41.0 °F 33.1 °F 35.6 °F 81% 30.24 in 10.0 mi South 15.0 mph 21.9 mph N/A   Drizzle
11:34 AM 44.6 °F 36.9 °F 37.4 °F 76% 30.21 in 10.0 mi SSE 18.4 mph - N/A Thunderstorm Overcast
11:54 AM 44.6 °F 37.2 °F 35.6 °F 71% 30.20 in 10.0 mi SSE 17.3 mph 20.7 mph N/A   Mostly Cloudy
12:14 PM 48.2 °F - 35.6 °F 62% 30.21 in 10.0 mi South 20.7 mph 25.3 mph N/A   Scattered Clouds
12:34 PM 46.4 °F 38.7 °F 33.8 °F 62% 30.19 in 10.0 mi SSE 20.7 mph 27.6 mph N/A   Mostly Cloudy
12:54 PM 46.4 °F 39.0 °F 32.0 °F 57% 30.17 in 10.0 mi SSE 19.6 mph 28.8 mph N/A   Overcast
1:14 PM 50.0 °F - 32.0 °F 50% 30.17 in 10.0 mi SSE 17.3 mph 26.5 mph N/A Thunderstorm Thunderstorm
1:34 PM 51.8 °F - 32.0 °F 47% 30.14 in 10.0 mi SSE 10.4 mph 17.3 mph N/A   Scattered Clouds
1:54 PM 51.8 °F - 32.0 °F 47% 30.14 in 10.0 mi SSE 11.5 mph 21.9 mph N/A Thunderstorm Mostly Cloudy
2:14 PM 51.8 °F - 32.0 °F 47% 30.12 in 10.0 mi SSE 10.4 mph 18.4 mph N/A Thunderstorm Thunderstorm
2:34 PM 46.4 °F 40.7 °F 33.8 °F 62% 30.10 in 10.0 mi ESE 12.7 mph 18.4 mph N/A Thunderstorm Thunderstorm
2:42 PM 44.6 °F 36.1 °F 33.8 °F 66% 30.13 in 7.0 mi SSW 21.9 mph 33.4 mph N/A Rain , Thunderstorm Thunderstorms and Rain